CZ-3B DEB, 40850

Orbit data source: Space-Track

CZ-3B DEB, 40850 is space debris in HEO originally from a launch on Mon, 19 Dec 2011 UTC launched from the Xichang Space Center, China (XSC). Debris objects in space refer to the collection of defunct objects orbiting the Earth. Examples of debris include non-operational satellites, rocket bodies, and fragments generated from explosions, collisions, or faulty payload assembly.

Loading next visibility...
Identifier
40850, 2011-077AF
Orbit
HEO
Country
Flag of CNCN / PRC
Related business
Manufacturer
CALT
Mission
Spacecraft
Bus & Motor
Unknown
Mass
Unknown
Launch date (UTC)
2011-12-19 (15 years ago)
Launch vehicle
Unknown
Launch site
Xichang Space Center, China (XSC)
Object type
Payload
Rocket body
Debris
Shape & HBR
Unknown shape, 0.1 m
Radar Cross Section
Medium (>0.1 m² and <1 m²)

Expand to show TLE details & history
Last TLE update: 5 months ago

TLE from 5 months ago
0 CZ-3B DEB
1 40850U 11077AF  26093.46745925  .00000553  00000-0  23115-2 0  9992
2 40850  24.9861 263.5745 7484640 222.1733  46.2287  1.92991505 77851
Epoch: 2026-04-03T11:13Z
TLE epoch observation values (Epoch: 2026-04-03T11:13:08.479Z)
Latitude
-0.00037°
Longitude
-96.63168°
Altitude
20,493.568 km
Speed
3.878 km/s
True Right ascension
17h 33m 49s
True Declination
0° 00' 01"
Sunlit
Object was in daylight at epoch
Visualization orbit readout
Latitude
Unknown
Longitude
Unknown
Altitude
Unknown
Speed
Unknown
Apparent Right ascension
Unknown
Apparent Declination
Unknown
Sunlit
N/A
Visualization observer readout
Local Sidereal Time
17:28:37
Azimuth
Unknown
Elevation
Unknown
Doppler factor
Unknown
Orbital elements
Apogee altitude
41,275.716 km
Perigee altitude
477.4 km
Semi-major axis
27,254.695 km
Eccentricity
0.74846
Inclination
24.9861°
RAAN
263.5745°
Arg. of periapsis
222.1733°
True anomaly
137.86202°
Mean anomaly
46.2287°
Eccentric anomaly
89.10732°
Mean motion
0.48237 °/min
Orbital period
746.31 mins
BSTAR
0.0023115
Loading maneuver chart data...
Computing Atmospheric mass density...
Loading historical data...
Loading historical data...
Loading historical data...
Loading historical data...
Loading historical data...
Loading historical data...
Loading historical data...

Documentation

Showing up to 5 results
|